Regional Weather Roundup
Issued by NWS

Home | Current Version | Previous Version | Graphics & Text | Print | Product List | Glossary On
Versions: 1 2 3 4 5 6 7 8 9 10 11 12 13 14 15 16 17 18 19 20 21 22 23 24 25 26 27 28 29 30 31 32 33 34 35 36 37 38 39 40 41 42 43 44 45 46 47 48 49 50
000
ASUS45 KBOU 090807
RWRCO

WEATHER ROUNDUP FOR COLORADO
NATIONAL WEATHER SERVICE DENVER/BOULDER CO
100 AM MST FRI DEC 09 2016

NOTE: "FAIR" INDICATES FEW OR NO CLOUDS BELOW 12000 FEET WITH NO
SIGNIFICANT WEATHER AND/OR OBSTRUCTIONS TO VISIBILITY.

COZ001>005-013-030-031-090900-
...NORTHWEST COLORADO...

CITY           SKY/WX    TMP DP  RH WIND       PRES   REMARKS
CRAIG          CLOUDY    23  15  71 CALM      30.16F
HAYDEN         CLOUDY    18  10  73 E8        30.16S WCI   7
MEEKER         CLOUDY    30  18  60 CALM      30.19S
MOUNT WERNER   NOT AVBL
STEAMBOAT SPGS CLOUDY    15  12  90 CALM      30.16S
WALDEN           N/A     23  19  86 SE15G24   30.08F WCI  10
$$

COZ006>008-011-090900-
...WEST CENTRAL VALLEYS...

CITY           SKY/WX    TMP DP  RH WIND       PRES   REMARKS
GRAND JUNCTION MOCLDY    23  15  71 CALM      30.28F
MONTROSE       CLOUDY    27  18  69 S6        30.28F WCI  20
EAGLE          LGT SNOW  19  16  88 E7        30.23F FOG     WCI  10
RIFLE          CLOUDY    24  16  71 CALM      30.28F
DELTA          MOCLDY    29  15  55 CALM      30.28F
NUCLA          CLOUDY    30  16  55 S5        30.29F WCI  25
$$

COZ017>023-064>068-090900-
...SOUTHWEST COLORADO...

CITY           SKY/WX    TMP DP  RH WIND       PRES   REMARKS
DURANGO        CLOUDY    25  14  63 CALM      30.29F
CORTEZ         CLOUDY    30  23  75 E3        30.28F
PAGOSA SPRINGS FAIR      20  11  68 CALM      30.30F
TELLURIDE      CLOUDY    29  26  88 SE7       30.27S WCI  22
WOLF CREEK PAS LGT SNOW  10   7  85 SW14G20   30.30S WCI  -5
$$

COZ009-010-012-014-032>034-037-058>063-090900-
...CENTRAL COLORADO...

CITY           SKY/WX    TMP DP  RH WIND       PRES   REMARKS
ASPEN          NOT AVBL
BUENA VISTA    MOCLDY    31  18  58 NW13      30.12F WCI  21
COPPER MTN     LGT SNOW  23  16  74 MISG      30.12S VSB 3/4
BERTHOUD PASS  HVY SNOW  14   3  62 W31       30.03F VSB 1/4 WCI  -7
COTTONWOOD PAS LGT SNOW  30  23  74 NW15G30   30.09F WCI  19
GUNNISON       LGT SNOW  16  14  93 W3        30.29F FOG
KREMMLING      LGT SNOW  21  16  79 E7        30.15F WCI  13
LEADVILLE      LGT SNOW  21  18  88 NE6       30.13F VSB 3/4 WCI  13
MONARCH PASS   CLOUDY    18  16  93 W30G43    30.29S WCI  -2
SALIDA         CLOUDY    32  17  53 SW12      30.22S WCI  23
SUNLIGHT       LGT SNOW  19  18  93 SW20G38   30.19F WCI   4
WILKERSON PASS FAIR      18  14  86 W15G28    30.09R WCI   3
$$

COZ069>075-090900-
...SAN LUIS VALLEY/SANGRE DE CRISTO MOUNTAINS...

CITY           SKY/WX    TMP DP  RH WIND       PRES   REMARKS
ALAMOSA        FAIR       3  -2  79 N3        30.24F
LA VETA PASS   FAIR      19  10  68 NE31G41   30.09F WCI   0
SAGUACHE       FAIR      12   9  85 N6        30.25R WCI   3
$$

COZ035-036-038>040-090900-
...NORTHERN COLORADO FRONT RANGE...

CITY           SKY/WX    TMP DP  RH WIND       PRES   REMARKS
DENVER INTL AP FAIR       6   1  80 NW3       30.11F
DMNS CITY PARK   N/A      8   3  82 N5        30.12F WCI  -1
AURORA         PTCLDY     3   0  88 N5        30.10F WCI  -7
FRONT RANGE AP FAIR       9   3  78 CALM      30.11F
ERIE MUNI ARPT FAIR       1  -2  86 CALM      30.14F
BOULDER MUN AP FAIR       5   3  92 N3        30.13F
CENTENNIAL     FAIR       6   2  83 CALM      30.07F
BROOMFIELD     FAIR       9   5  85 CALM      30.11F
FORT COLLINS   FAIR       7   1  78 CALM      30.16F
LONGMONT       FAIR       3  -1  81 W5        30.18F WCI  -6
$$

COZ041-046-047-076>085-087-088-090900-
...PIKES PEAK/PALMER DIVIDE AND SOUTHERN FOOTHILLS...

CITY           SKY/WX    TMP DP  RH WIND       PRES   REMARKS
COLO. SPRINGS  FLURRIES   7   2  80 NW5       30.14F WCI  -2
A. F. ACADEMY  CLOUDY     7   3  85 S3        30.10F
SCHRIEVER AFB  NOT AVBL
ELLICOTT       FAIR     N/A N/A N/A CALM        N/A
FALCON         FAIR       2  -1  87 W3        30.10F
FORT CARSON    CLOUDY    10   3  73 N2        30.14F
LIMON          FAIR       2  -2  83 S9        30.17F WCI -13
MONUMENT HILL  FAIR      14   9  79 SW13      30.04F WCI   0
TRINIDAD       FAIR      19  11  70 W18       30.14F WCI   4
$$

COZ042>045-048>051-090-091-090900-
...NORTHEAST COLORADO...

CITY           SKY/WX    TMP DP  RH WIND       PRES   REMARKS
GREELEY ARPT   FAIR       9   5  84 CALM      30.19F
AKRON          CLOUDY    12   3  67 S16       30.20F WCI  -5
BURLINGTON     FAIR       8   0  69 SE14      30.28F WCI  -8
WRAY           NOT AVBL
STERLING       MOCLDY    16   9  73 S10       30.24F WCI   3
HOLYOKE        FAIR       9   3  78 S7        30.32F WCI  -3
FORT MORGAN    CLOUDY    14   4  64 S10       30.19F WCI   1
$$

COZ086-089-092>099-090900-
...SOUTHEAST COLORADO...

CITY           SKY/WX    TMP DP  RH WIND       PRES   REMARKS
PUEBLO         FAIR       9   2  73 N7        30.22F WCI  -2
LA JUNTA       FAIR      11   5  77 CALM      30.24F
LAMAR          FAIR       7  -1  70 E7        30.28F WCI  -5
SPRINGFIELD      N/A     20  10  65 S16       30.27F WCI   6
$$



USA.gov is the U.S. government's official web portal to all federal, state and local government web resources and services.